COSMOS 2564 (761)

Last updated on Fri Oct 17 2025 00:03:20 GMT+0000 (Coordinated Universal Time)

1 54377U 22161A 25288.75674455 -.00000038 00000+0 00000+0 0 9996 2 54377 64.7379 200.8239 0009833 215.8906 144.0717 2.13102021 22428
UTC large
Height (km)
Speed (km/s)
/
Latitude / Longitude
Inclination (degrees)
Orbital Period (minutes)
Azimuth
Elevation
Range (km)
Doppler Factor

Next 0 passes for location: London (51.5072 / 0.1276)

Sorry there are no passes over London.